Sault Ste Marie, MI

8:33 PM EDT on June 28, 2017 (GMT -0400)
Sault Ste Marie Municipal / Sanderson Field

Weather History for KANJ - September, 2013

Change the Weather History Date:

Saturday, September 21, 2013

  Actual Average Record
Temperature  
Mean Temperature 49 °F 55 °F  
Max Temperature 56 °F 64 °F 84 °F (1914)
Min Temperature 42 °F 46 °F 27 °F (1981)
Degree Days  
Heating Degree Days 16 10  
Month to date heating degree days 163 147  
Since 1 July heating degree days 279 294  
Cooling Degree Days 0 0  
Month to date cooling degree days 14 15  
Year to date cooling degree days 266 193  
Moisture  
Dew Point 43 °F    
Average Humidity 73    
Maximum Humidity 83    
Minimum Humidity 63    
Precipitation  
Precipitation 0.04 in 0.13 in 2.14 in (1970)
Month to date precipitation 6.59 2.63  
Year to date precipitation 34.88 21.80  
Sea Level Pressure  
Sea Level Pressure 29.75 in    
Wind  
Wind Speed 12 mph (NW)    
Max Wind Speed 23 mph    
Max Gust Speed 34 mph    
Visibility 10 miles    
Events Rain    
T = Trace of Precipitation, MM = Missing Value Source: NWS Daily Summary

Daily Weather History Graph

Daily Weather History Graph

Search for Another Location

Airport or City:

Trip Planner

Search our weather history database for the weather conditions in past years. The results will help you decide how hot, cold, wet, or windy it might be!

Date:

Astronomy

Sep. 21, 2013 Rise Set
Actual Time 7:23 AM EDT 7:36 PM EDT
Civil Twilight 6:53 AM EDT 8:06 PM EDT
Nautical Twilight 6:17 AM EDT 8:42 PM EDT
Astronomical Twilight 5:41 AM EDT 9:18 PM EDT
Moon 8:34 PM EDT (9/21) 9:51 AM EDT (9/21)
Length of Visible Light 13h 13m
Length of Day
12h 13m
Waning Gibbous, 94% of the Moon is Illuminated
Sep 21
Waning Gibbous
Sep 26
Last Quarter
Oct 4
New
Oct 11
First Quarter
Oct 18
Full

Hourly Weather History & Observations

Time (EDT) Temp. Windchill Dew Point Humidity Pressure Visibility Wind Dir Wind Speed Gust Speed Precip Events Conditions
12:23 AM 55.9 °F - 51.1 °F 84% 29.69 in 10.0 mi NW 10.4 mph - N/A   Overcast
12:35 AM 55.9 °F - 51.1 °F 84% 29.70 in 10.0 mi NW 10.4 mph - N/A   Overcast
12:55 AM 55.9 °F - 50.0 °F 80% 29.69 in 10.0 mi WNW 9.2 mph - N/A   Overcast
1:55 AM 55.9 °F - 48.9 °F 77% 29.69 in 10.0 mi NW 12.7 mph 19.6 mph N/A   Overcast
2:55 AM 54.0 °F - 48.0 °F 80% 29.69 in 10.0 mi NW 11.5 mph - N/A   Overcast
3:55 AM 53.1 °F - 46.9 °F 80% 29.69 in 10.0 mi NW 8.1 mph 18.4 mph N/A   Mostly Cloudy
4:04 AM 53.1 °F - 46.0 °F 77% 29.69 in 10.0 mi NW 12.7 mph - N/A   Partly Cloudy
4:55 AM 52.0 °F - 45.0 °F 77% 29.69 in 10.0 mi NW 11.5 mph 20.7 mph N/A   Clear
5:28 AM 53.1 °F - 43.0 °F 69% 29.69 in 10.0 mi NW 16.1 mph 23.0 mph N/A   Mostly Cloudy
5:55 AM 52.0 °F - 44.1 °F 74% 29.69 in 10.0 mi WNW 12.7 mph 19.6 mph N/A   Scattered Clouds
6:55 AM 52.0 °F - 44.1 °F 74% 29.69 in 10.0 mi WNW 11.5 mph 19.6 mph N/A   Scattered Clouds
7:55 AM 51.1 °F - 43.0 °F 74% 29.70 in 10.0 mi WNW 10.4 mph - N/A   Clear
8:55 AM 53.1 °F - 42.1 °F 66% 29.72 in 10.0 mi NW 10.4 mph 21.9 mph N/A   Scattered Clouds
9:55 AM 53.1 °F - 42.1 °F 66% 29.72 in 10.0 mi NW 12.7 mph 19.6 mph N/A   Overcast
10:55 AM 52.0 °F - 42.1 °F 69% 29.73 in 10.0 mi NW 12.7 mph 24.2 mph N/A   Overcast
11:55 AM 53.1 °F - 42.1 °F 66% 29.74 in 10.0 mi WNW 17.3 mph 27.6 mph 0.00 in   Overcast
12:05 PM 48.9 °F - 44.1 °F 83% 29.74 in 4.0 mi WNW 15.0 mph 25.3 mph 0.00 in Rain Light Rain
12:19 PM 51.1 °F - 46.0 °F 83% 29.74 in 10.0 mi West 9.2 mph - 0.00 in   Mostly Cloudy
12:55 PM 53.1 °F - 42.1 °F 66% 29.74 in 10.0 mi NNW 13.8 mph 25.3 mph 0.00 in   Overcast
1:55 PM 54.0 °F - 41.0 °F 62% 29.75 in 10.0 mi NW 15.0 mph 25.3 mph N/A   Overcast
2:55 PM 52.0 °F - 39.0 °F 61% 29.76 in 10.0 mi NW 16.1 mph 28.8 mph N/A   Mostly Cloudy
3:55 PM 51.1 °F - 39.0 °F 63% 29.77 in 10.0 mi NW 19.6 mph 26.5 mph N/A   Mostly Cloudy
4:55 PM 52.0 °F - 39.0 °F 61% 29.78 in 10.0 mi NW 18.4 mph 28.8 mph N/A   Overcast
5:55 PM 51.1 °F - 39.0 °F 63% 29.79 in 10.0 mi NW 16.1 mph 24.2 mph N/A   Overcast
6:55 PM 48.0 °F - 39.0 °F 71% 29.81 in 10.0 mi NW 10.4 mph 21.9 mph N/A   Scattered Clouds
7:55 PM 48.0 °F - 39.0 °F 71% 29.82 in 10.0 mi NNW 9.2 mph - 0.00 in Rain Light Rain
8:55 PM 48.0 °F - 41.0 °F 77% 29.83 in 10.0 mi NW 6.9 mph - 0.01 in Rain Light Rain
9:55 PM 46.9 °F - 41.0 °F 80% 29.85 in 8.0 mi North 8.1 mph - 0.02 in Rain Light Rain
10:17 PM 46.0 °F 42.5 °F 39.9 °F 79% 29.85 in 10.0 mi North 6.9 mph - 0.01 in Rain Light Rain
10:55 PM 46.0 °F 40.2 °F 39.9 °F 79% 29.87 in 10.0 mi North 12.7 mph 17.3 mph 0.01 in   Overcast
11:55 PM 43.0 °F 39.5 °F 37.0 °F 80% 29.89 in 10.0 mi North 5.8 mph - N/A   Clear